Showing default

JILIN-01-07, 43159

Orbit data source: Space-Track

JILIN-01-07, 43159 is a Chinese payload satellite in SSO that was launched on Fri, 19 Jan 2018 UTC via a CHANG ZHENG 11 launch vehicle from the Jiuquan Satellite Launch Center, China (JSC). Payload-class satellites include a variety of spacecraft equipped with specific instruments for various scientific and technological missions. These include communications satellites like Starlink; space stations such as the ISS; scientific satellites like the Hubble; Earth observation satellites from companies like Planet Labs, Umbra, and HawkEye 360; GPS; miniature CubeSats for education and research; and military/defense satellites.

Loading next visibility...
Identifier
43159, 2018-008E
Orbit
SSO
Country
Flag of CNCN / PRC
Related business
Manufacturer
Changguang WJ
Mission
Operational Commercial Imaging
Bus & Motor
JL-1, Unknown motor
Mass
95 kg wet, 95 kg dry
Launch date (UTC)
2018-01-19 (8 years ago)
Launch vehicle
CHANG ZHENG 11
Launch site
Jiuquan Satellite Launch Center, China (JSC)
Object type
Payload
Rocket body
Debris
Shape & HBR
Box + 2 Pan, 0.8 m
Radar Cross Section
2.000 m², Large (>1 m²)

Expand to show TLE details & history
Last TLE update: 8 hours ago

TLE from 8 hours ago
0 JILIN-01-07
1 43159U 18008E   26168.15816737  .00006825  00000-0  20479-3 0  9996
2 43159  97.1764 188.0875 0009894  65.4428 294.7846 15.34721994464991
Epoch: 2026-06-17T03:47Z
TLE epoch observation values (Epoch: 2026-06-17T03:47:45.660Z)
Latitude
-0.00003°
Longitude
-134.27261°
Altitude
462.031 km
Speed
7.637 km/s
True Right ascension
12h 32m 21s
True Declination
0° 00' 00"
Sunlit
Object was in daylight at epoch
Visualization orbit readout
Latitude
Unknown
Longitude
Unknown
Altitude
Unknown
Speed
Unknown
Apparent Right ascension
Unknown
Apparent Declination
Unknown
Sunlit
N/A
Visualization observer readout
Local Sidereal Time
22:31:50
Azimuth
Unknown
Elevation
Unknown
Doppler factor
Unknown
Orbital elements
Apogee altitude
465.447 km
Perigee altitude
451.919 km
Semi-major axis
6,836.82 km
Eccentricity
0.00099
Inclination
97.1764°
RAAN
188.0875°
Arg. of periapsis
65.4428°
True anomaly
294.68161°
Mean anomaly
294.7846°
Eccentric anomaly
294.73311°
Mean motion
3.83939 °/min
Orbital period
93.76 mins
BSTAR
0.00020479
Loading maneuver chart data...
Computing Atmospheric mass density...
Loading historical data...
Loading historical data...
Loading historical data...
Loading historical data...
Loading historical data...
Loading historical data...
Loading historical data...

Documentation

Showing up to 5 results
|